Tracking 31027 objects as of 19-Jul-2025
HD Live streaming from Space Station
objects crossing your sky now

FREGAT R/B

Track FREGAT R/B now!


NORAD ID: 41033
Int'l Code: 2015-066B
Perigee: 368.3 km
Apogee: 39,804.6 km
Inclination: 63.1 °
Period: 713.8 minutes
Semi major axis: 26457 km
RCS: Unknown
Launch date: November 17, 2015
Source: Commonwealth of Independent States (former USSR) (CIS)
Launch site: PLESETSK MISSILE AND SPACE COMPLEX (PKMTR)

Note: This is a ROCKET BODY
Your satellite tracking list
FLOCK 4Q 34
Track 1 satellite(s)




NASA's NSSDC Master Catalog

Two Line Element Set (TLE):
1 41033U 15066B   25198.55520246  .00000803  00000-0  62899-3 0  9991
2 41033  63.0686   5.8063 7452767 264.6645  15.1236  2.01734721 71165
Source of the keplerian elements: AFSPC